Location: Chervonnoye
(48.6000°N, 34.4000°E)
Time: 17:36:17
(UTC+00:00)

UKube-1 - Pass Details

Date: 29 November 2021
Orbit: 610 x 618 km, 98.4° (Epoch: 20 January)

Event Time Altitude Azimuth Distance (km) Brightness Sun altitude
Rises 04:07:09 0° 113° (ESE) 2,889 ? -10.2°
Reaches altitude 10° 04:10:16 10° 88° (E) 1,989 ? -9.7°
Maximum altitude 04:12:28 14° 57° (ENE) 1,745 ? -9.4°
Drops below altitude 10° 04:14:41 10° 26° (NNE) 1,995 ? -9.1°
Sets 04:17:49 0° 2° (N) 2,906 ? -8.6°
